Flag for Portugal Weather past 2 weeks in Viseu, Portugal

Now
44 °F

Quite cool.


Feels Like: 43 °F
Forecast: 41 / 65 °F
Wind: 3 mph from West

Location: Viseu

Current Time: Apr 27, 2015 at 5:51:21 AM

Latest Report: Apr 27, 2015 at 5:00 AM


Visibility: N/A

Pressure: 29.98 "Hg

Humidity: 99%

Dew point: 44 °F

Location of ViseuLocation

Historic Weather in Viseu — Graph

°F

Viseu temperature yesterday

Maximum temperature yesterday: 52 °F (at 10:00 AM)
Minimum temperature yesterday: 46 °F (at 11:00 PM)
Average temperature yesterday: 49 °F

Past Weeks' High & Low Weather Summary

 TemperatureHumidityPressure
High74 °F (Apr 13, 4:00 PM)100% (Apr 15, 11:00 PM)30.24 "Hg (Apr 15, 11:00 PM)
Low42 °F (Apr 19, 5:00 AM)28% (Apr 23, 4:00 PM)29.77 "Hg (Apr 26, 3:00 AM)
Average54 °F77%30.04 "Hg
* Reported Apr 12 4:00 AM — Apr 27 4:00 AM, Viseu, Weather by CustomWeather, © 2015

Note: Actual official high and low records may vary slightly from our data, if they occured in-between our weather recording intervals... More about our weather records

Advertising

Viseu weather history for previous 24 hours

 ConditionsComfort  
Time TempWeatherWind HumidityBarometerVisibility
4:00 AM
Mon, Apr 27
44 °FQuite cool.3 mph99%29.97 "HgN/A
3:00 AM45 °FCool.2 mph99%29.96 "HgN/A
2:00 AM46 °FCool.5 mph99%29.96 "HgN/A
1:00 AM46 °FCool.3 mph97%29.96 "HgN/A
12:00 AM46 °FCool.3 mph97%29.94 "HgN/A
11:00 PM
Sun, Apr 26
46 °FCool.3 mph97%29.93 "HgN/A
9:00 PM48 °FCool.5 mph94%29.88 "HgN/A
8:00 PM49 °FCool.5 mph92%29.85 "HgN/A
7:00 PM50 °FCool.5 mph90%29.83 "HgN/A
6:00 PM51 °FCool.6 mph88%29.80 "HgN/A
5:00 PM51 °FCool.5 mph93%29.81 "HgN/A
4:00 PM48 °FCool.3 mph91%29.82 "HgN/A
3:00 PM47 °FCool.5 mph96%29.83 "HgN/A
2:00 PM47 °FCool.2 mph91%29.80 "HgN/A
1:00 PM52 °FCool.1 mph89%29.78 "HgN/A
12:00 PM49 °FCool.5 mph95%29.80 "HgN/A
11:00 AM50 °FCool.3 mph95%29.80 "HgN/A
10:00 AM52 °FCool.3 mph87%29.79 "HgN/A
9:00 AM49 °FCool.2 mph100%29.80 "HgN/A
8:00 AM48 °FCool.2 mph99%29.80 "HgN/A
7:00 AM47 °FCool.2 mph96%29.80 "HgN/A
6:00 AM47 °FCool.3 mph99%29.79 "HgN/A
5:00 AM49 °FCool.6 mph99%29.78 "HgN/A
Weather by CustomWeather, © 2015

See weather overviewHow to use our weather pages